Location: ????????
(37.6846°N, 24.0673°E)
Time: 14:54:32
(UTC+00:00)

IDEFIX/ARIANE 42P - Pass Details

Date: 14 July 2020
Orbit: 784 x 804 km, 98.4° (Epoch: 03 August)

Event Time Altitude Azimuth Distance (km) Brightness Sun altitude
Rises 01:54:43 0° 8° (N) 3,286 6.6 -13.6°
Reaches altitude 10° 01:57:04 10° 5° (N) 2,351 5.7 -13.2°
Maximum altitude 02:02:10 61° 287° (WNW) 890 2.7 -12.5°
Enters shadow 02:06:34 14° 209° (SSW) 2,080 4.2 -11.8°
